TimeEDT,TemperatureF,Dew PointF,Humidity,Sea Level PressureIn,VisibilityMPH,Wind Direction,Wind SpeedMPH,Gust SpeedMPH,PrecipitationIn,Events,Conditions,WindDirDegrees,DateUTC
12:00 AM,60.8,60.8,100,29.96,0.2,Calm,Calm,-,N/A,Fog,Fog,0,2013-08-13 04:00:00
12:53 AM,60.1,59.0,96,29.95,1.5,Calm,Calm,-,N/A,,Overcast,0,2013-08-13 04:53:00
1:05 AM,60.8,59.0,94,29.94,0.8,Calm,Calm,-,N/A,,Mist,0,2013-08-13 05:05:00
1:25 AM,60.8,59.0,94,29.95,2.5,Calm,Calm,-,N/A,,Overcast,0,2013-08-13 05:25:00
1:32 AM,60.8,59.0,94,29.94,5.0,Calm,Calm,-,N/A,,Overcast,0,2013-08-13 05:32:00
1:43 AM,60.8,59.0,94,29.94,4.0,Calm,Calm,-,N/A,,Overcast,0,2013-08-13 05:43:00
1:53 AM,60.1,59.0,96,29.93,5.0,Calm,Calm,-,N/A,,Overcast,0,2013-08-13 05:53:00
2:17 AM,60.8,59.0,94,29.93,6.0,Calm,Calm,-,N/A,,Overcast,0,2013-08-13 06:17:00
2:20 AM,60.8,59.0,94,29.93,0.8,Calm,Calm,-,N/A,,Mist,0,2013-08-13 06:20:00
2:29 AM,60.8,59.0,94,29.93,0.2,Calm,Calm,-,N/A,Fog,Fog,0,2013-08-13 06:29:00
2:53 AM,61.0,59.0,93,29.92,0.2,Calm,Calm,-,0.01,Fog,Fog,0,2013-08-13 06:53:00
2:59 AM,60.8,59.0,94,29.92,1.0,Calm,Calm,-,N/A,,Mist,0,2013-08-13 06:59:00
3:05 AM,60.8,60.8,100,29.92,3.0,Calm,Calm,-,N/A,,Overcast,0,2013-08-13 07:05:00
3:43 AM,62.6,60.8,94,29.90,1.5,Calm,Calm,-,N/A,,Overcast,0,2013-08-13 07:43:00
3:53 AM,63.0,61.0,93,29.90,0.5,Calm,Calm,-,N/A,Fog,Fog,0,2013-08-13 07:53:00
4:09 AM,62.6,60.8,94,29.90,0.2,Calm,Calm,-,N/A,Fog,Fog,0,2013-08-13 08:09:00
4:53 AM,63.0,62.1,97,29.89,0.2,Calm,Calm,-,N/A,Fog,Fog,0,2013-08-13 08:53:00
5:20 AM,-9999,-9999,N/A,29.88,1.0,Calm,Calm,-,N/A,,Mist,0,2013-08-13 09:20:00
5:26 AM,62.6,62.6,100,29.88,3.0,Calm,Calm,-,N/A,,Overcast,0,2013-08-13 09:26:00
5:29 AM,62.6,62.6,100,29.88,1.2,SSE,3.5,-,N/A,,Overcast,150,2013-08-13 09:29:00
5:34 AM,64.4,62.6,94,29.88,0.2,SSE,3.5,-,N/A,Fog,Fog,150,2013-08-13 09:34:00
5:53 AM,64.0,63.0,96,29.88,0.2,Calm,Calm,-,N/A,Fog,Fog,0,2013-08-13 09:53:00
6:06 AM,64.4,62.6,94,29.88,0.2,Calm,Calm,-,N/A,Fog,Fog,0,2013-08-13 10:06:00
6:20 AM,64.4,62.6,94,29.88,0.8,SE,3.5,-,N/A,,Mist,130,2013-08-13 10:20:00
6:23 AM,64.4,62.6,94,29.88,1.2,SE,3.5,-,N/A,,Partly Cloudy,130,2013-08-13 10:23:00
6:36 AM,64.4,62.6,94,29.88,0.2,Calm,Calm,-,N/A,Fog,Fog,0,2013-08-13 10:36:00
6:44 AM,66.2,64.4,94,29.88,0.2,SSE,3.5,-,N/A,Fog,Fog,160,2013-08-13 10:44:00
6:53 AM,68.0,66.0,93,29.88,0.2,Calm,Calm,-,N/A,Fog,Fog,0,2013-08-13 10:53:00
7:22 AM,69.8,68.0,94,29.87,1.0,South,3.5,-,N/A,,Clear,170,2013-08-13 11:22:00
7:53 AM,71.1,69.1,93,29.86,1.5,South,3.5,-,N/A,,Scattered Clouds,170,2013-08-13 11:53:00
8:03 AM,71.6,69.8,94,29.86,2.0,Calm,Calm,-,N/A,,Mostly Cloudy,0,2013-08-13 12:03:00
8:20 AM,71.6,69.8,94,29.86,1.5,Calm,Calm,-,N/A,,Mostly Cloudy,0,2013-08-13 12:20:00
8:29 AM,71.6,69.8,94,29.86,1.8,South,3.5,-,N/A,,Mostly Cloudy,170,2013-08-13 12:29:00
8:33 AM,71.6,69.8,94,29.86,2.0,Calm,Calm,-,0.00,Rain,Light Rain,0,2013-08-13 12:33:00
8:53 AM,73.0,71.1,93,29.86,2.0,Calm,Calm,-,0.00,Rain,Light Rain,0,2013-08-13 12:53:00
9:50 AM,-9999,-9999,N/A,29.86,2.5,South,3.5,-,0.01,Rain,Light Rain,170,2013-08-13 13:50:00
9:53 AM,-9999,-9999,N/A,29.86,2.5,Calm,Calm,-,0.02,Rain,Light Rain,0,2013-08-13 13:53:00
10:53 AM,-9999,-9999,N/A,29.84,2.0,Calm,Calm,-,0.05,Rain,Light Rain,0,2013-08-13 14:53:00
11:53 AM,-9999,-9999,N/A,29.82,2.5,East,3.5,-,0.08,Rain,Rain,80,2013-08-13 15:53:00
12:09 PM,-9999,-9999,N/A,29.80,1.8,East,5.8,-,0.03,Rain,Rain,80,2013-08-13 16:09:00
12:22 PM,-9999,-9999,N/A,29.80,2.0,East,5.8,-,0.05,Rain,Rain,90,2013-08-13 16:22:00
12:31 PM,-9999,-9999,N/A,29.78,2.0,East,5.8,-,0.08,Rain,Rain,90,2013-08-13 16:31:00
12:53 PM,72.0,69.1,91,29.78,4.0,East,4.6,-,0.16,Rain,Rain,90,2013-08-13 16:53:00
1:13 PM,71.6,68.0,88,29.70,2.5,East,10.4,19.6,0.07,Rain,Rain,90,2013-08-13 17:13:00
1:30 PM,71.6,69.8,94,29.73,4.0,East,10.4,-,0.10,Rain,Light Rain,90,2013-08-13 17:30:00
1:40 PM,71.6,69.8,94,29.74,7.0,East,6.9,-,0.10,Rain,Light Rain,80,2013-08-13 17:40:00
1:51 PM,69.8,66.2,88,29.74,8.0,East,6.9,-,0.10,Rain,Light Rain,80,2013-08-13 17:51:00
1:53 PM,70.0,66.9,90,29.74,8.0,ENE,6.9,-,0.10,Rain,Light Rain,70,2013-08-13 17:53:00
2:05 PM,69.8,66.2,88,29.74,1.8,North,6.9,-,0.04,Rain,Heavy Rain,360,2013-08-13 18:05:00
2:25 PM,69.8,66.2,88,29.74,3.0,NNE,11.5,-,0.10,Rain,Light Rain,30,2013-08-13 18:25:00
2:37 PM,66.2,64.4,94,29.74,1.8,North,10.4,-,0.15,Rain,Heavy Rain,10,2013-08-13 18:37:00
2:53 PM,68.0,64.9,90,29.74,1.0,NNE,6.9,-,0.27,Rain,Heavy Rain,20,2013-08-13 18:53:00
3:43 PM,69.8,66.2,88,29.73,3.0,ENE,5.8,-,0.24,Rain,Light Rain,60,2013-08-13 19:43:00
3:51 PM,69.8,66.2,88,29.73,2.5,NE,6.9,-,0.25,Rain,Light Rain,50,2013-08-13 19:51:00
3:53 PM,69.1,66.9,93,29.73,2.5,NE,5.8,-,0.25,Rain,Light Rain,50,2013-08-13 19:53:00
4:00 PM,69.8,66.2,88,29.72,4.0,NE,6.9,-,0.00,Rain,Light Rain,50,2013-08-13 20:00:00
4:41 PM,73.4,68.0,83,29.72,10.0,NNE,9.2,-,0.00,,Scattered Clouds,20,2013-08-13 20:41:00
4:53 PM,73.0,66.0,79,29.72,10.0,NE,6.9,-,0.00,,Scattered Clouds,40,2013-08-13 20:53:00
5:32 PM,71.6,66.2,83,29.72,10.0,NNW,5.8,-,N/A,,Mostly Cloudy,340,2013-08-13 21:32:00
5:53 PM,71.1,66.0,84,29.73,10.0,North,5.8,-,N/A,,Overcast,360,2013-08-13 21:53:00
6:53 PM,72.0,66.9,84,29.73,10.0,NNE,3.5,-,N/A,,Overcast,30,2013-08-13 22:53:00
7:50 PM,69.8,66.2,88,29.74,6.0,Calm,Calm,-,N/A,,Scattered Clouds,0,2013-08-13 23:50:00
7:53 PM,68.0,66.0,93,29.75,6.0,East,3.5,-,N/A,,Scattered Clouds,100,2013-08-13 23:53:00
8:36 PM,66.2,64.4,94,29.76,1.8,Calm,Calm,-,N/A,,Clear,0,2013-08-14 00:36:00
8:46 PM,66.2,64.4,94,29.76,0.5,Calm,Calm,-,N/A,Fog,Fog,0,2013-08-14 00:46:00
8:53 PM,66.0,64.9,96,29.76,1.2,South,3.5,-,N/A,,Clear,190,2013-08-14 00:53:00
9:18 PM,64.4,64.4,100,29.76,2.0,Calm,Calm,-,N/A,,Clear,0,2013-08-14 01:18:00
9:26 PM,64.4,64.4,100,29.75,1.5,Calm,Calm,-,N/A,,Clear,0,2013-08-14 01:26:00
9:38 PM,64.4,62.6,94,29.75,0.8,Calm,Calm,-,N/A,,Mist,0,2013-08-14 01:38:00
9:53 PM,64.0,63.0,96,29.75,0.5,Calm,Calm,-,N/A,Fog,Fog,0,2013-08-14 01:53:00
10:20 PM,64.4,64.4,100,29.75,2.0,Calm,Calm,-,N/A,,Mostly Cloudy,0,2013-08-14 02:20:00
10:28 PM,64.4,62.6,94,29.76,3.0,Calm,Calm,-,N/A,,Mostly Cloudy,0,2013-08-14 02:28:00
10:36 PM,64.4,64.4,100,29.76,2.5,Calm,Calm,-,N/A,,Mostly Cloudy,0,2013-08-14 02:36:00
10:45 PM,64.4,64.4,100,29.76,3.0,Calm,Calm,-,N/A,,Overcast,0,2013-08-14 02:45:00
10:53 PM,66.0,64.0,93,29.76,4.0,Calm,Calm,-,N/A,,Overcast,0,2013-08-14 02:53:00
11:14 PM,66.2,64.4,94,29.75,4.0,Calm,Calm,-,N/A,,Scattered Clouds,0,2013-08-14 03:14:00
11:53 PM,66.0,64.9,96,29.75,4.0,Calm,Calm,-,N/A,,Scattered Clouds,0,2013-08-14 03:53:00